Showing default

LEMUR-2 EMARCHIA, 68492

Orbit data source: Space-Track

LEMUR-2 EMARCHIA, 68492 is a payload satellite owned by Spire (DE) in SSO that was launched on Mon, 30 Mar 2026 UTC via an FALCON 9 launch vehicle from the Air Force Western Test Range (AFWTR). Payload-class satellites include a variety of spacecraft equipped with specific instruments for various scientific and technological missions. These include communications satellites like Starlink; space stations such as the ISS; scientific satellites like the Hubble; Earth observation satellites from companies like Planet Labs, Umbra, and HawkEye 360; GPS; miniature CubeSats for education and research; and military/defense satellites.

Loading next visibility...
Identifier
68492, 2026-067CE
Orbit
SSO
Country
Flag of DEDE / GER
Related business
Manufacturer
Spire/Glasgow
Mission
Operational Commercial Com/MetRO
Bus & Motor
CUBESAT 3U, Unknown motor
Mass
7.6 kg wet, 7.6 kg dry
Launch date (UTC)
2026-03-30 (6 months ago)
Launch vehicle
FALCON 9
Launch site
Air Force Western Test Range (AFWTR)
Object type
Payload
Rocket body
Debris
Shape & HBR
Box + 2 Pan, 0.5 m
Radar Cross Section
0.063 m², Medium (>0.1 m² and < 1m²)

Expand to show TLE details & history
Last TLE update: 2 days ago

TLE from 2 days ago
0 LEMUR-2 EMARCHIA
1 68492U 26067CE  26261.62118993  .00003945  00000-0  38979-3 0  9996
2 68492  97.7653 218.3944 0005137  97.3146 262.8657 14.92488049 25658
Epoch: 2026-09-18T14:54Z
TLE epoch observation values (Epoch: 2026-09-18T14:54:30.809Z)
Latitude
-0.00007°
Longitude
-2.77541°
Altitude
593.67 km
Speed
7.563 km/s
True Right ascension
14h 33m 34s
True Declination
0° 00' 00"
Sunlit
Object was in daylight at epoch
Visualization orbit readout
Latitude
Unknown
Longitude
Unknown
Altitude
Unknown
Speed
Unknown
Apparent Right ascension
Unknown
Apparent Declination
Unknown
Sunlit
N/A
Visualization observer readout
Local Sidereal Time
06:55:33
Azimuth
Unknown
Elevation
Unknown
Doppler factor
Unknown
Orbital elements
Apogee altitude
590.777 km
Perigee altitude
583.621 km
Semi-major axis
6,965.336 km
Eccentricity
0.00051
Inclination
97.7653°
RAAN
218.3944°
Arg. of periapsis
97.3146°
True anomaly
262.80729°
Mean anomaly
262.8657°
Eccentric anomaly
262.8365°
Mean motion
3.73362 °/min
Orbital period
96.42 mins
BSTAR
0.00038979
Loading maneuver chart data...
Computing Atmospheric mass density...
Loading historical data...
Loading historical data...
Loading historical data...
Loading historical data...
Loading historical data...
Loading historical data...
Loading historical data...

Documentation

Showing up to 5 results
|